This is the latest recevied weather packets stored in our database for station/object F6BIJ-13. If no packets are shown the sender has not sent any weather packets the latest 10 day(s).
| Time | Temp. | Humidity | Pressure | Rain* | Wind** | Luminosity | Snow |
|---|---|---|---|---|---|---|---|
| 1777487437 | 18.33° C | 63% | 1015.4 hPa | 0 mm | - | - | - |
| 1777487077 | 18.89° C | 63% | 1015.2 hPa | 0 mm | - | - | - |
| 1777486716 | 18.33° C | 62% | 1015.3 hPa | 0 mm | - | - | - |
| 1777486357 | 19.44° C | 61% | 1015.2 hPa | 0 mm | - | - | - |
| 1777485997 | 19.44° C | 61% | 1015.1 hPa | 0 mm | - | - | - |
| 1777485637 | 19.44° C | 60% | 1015 hPa | 0 mm | - | - | - |
| 1777485277 | 19.44° C | 60% | 1014.9 hPa | 0 mm | - | - | - |
| 1777484916 | 19.44° C | 61% | 1014.8 hPa | 0 mm | - | - | - |
| 1777484558 | 19.44° C | 60% | 1014.8 hPa | 0 mm | - | - | - |
| 1777484197 | 19.44° C | 58% | 1014.8 hPa | 0 mm | - | - | - |
| 1777483837 | 20° C | 59% | 1014.7 hPa | 0 mm | - | - | - |
| 1777483477 | 20.56° C | 59% | 1014.7 hPa | 0 mm | - | - | - |
| 1777483117 | 19.44° C | 59% | 1014.8 hPa | 0 mm | - | - | - |
| 1777482758 | 20° C | 60% | 1014.9 hPa | 0 mm | - | - | - |
| 1777482397 | 20° C | 59% | 1014.9 hPa | 0 mm | - | - | - |
| 1777482037 | 20° C | 61% | 1014.8 hPa | 0 mm | - | - | - |
| 1777481677 | 21.11° C | 61% | 1014.8 hPa | 0 mm | - | - | - |
| 1777481317 | 20.56° C | 57% | 1014.8 hPa | 0 mm | - | - | - |
| 1777480957 | 21.67° C | 58% | 1014.9 hPa | 0 mm | - | - | - |
| 1777480597 | 20.56° C | 58% | 1014.9 hPa | 0 mm | - | - | - |
| 1777480237 | 20.56° C | 58% | 1014.8 hPa | 0 mm | - | - | - |
| 1777479877 | 21.67° C | 58% | 1014.8 hPa | 0 mm | - | - | - |
| 1777479517 | 20.56° C | 58% | 1014.8 hPa | 0 mm | - | - | - |
| 1777479157 | 21.11° C | 59% | 1014.7 hPa | 0 mm | - | - | - |
| 1777478797 | 21.11° C | 58% | 1014.8 hPa | 0 mm | - | - | - |
* Rain latest 24 hours (hover to see other rain measurements)
** Current wind speed in m/s (hover to see current wind gust speed)